RH
3 3 3 3 3 3 3 3 4 3 4 3 4 4 3 4 3 3 3 3 3 3 4 3 4 3 3 3 3 3 2 3 2 2 2 3 7 9 11 14 16 17 16 16 14 17 23 28 36 42 49 55 59 68 71 73 78 80 85 80 76 82 83 84 89 95 94 85 85 89 86 82 85 86 79 77 75 74 73 57 51 51 41 36 30 25 21 19
3 3 3 3 3 3 3 3 3 3 3 3 3 3 3 4 3 3 3 3 3 3 3 3 4 4 4 4 3 4 3 3 2 2 2 2 4 6 10 12 15 17 16 17 15 13 17 23 30 35 43 53 59 64 68 69 76 84 85 80 75 79 85 87 90 92 93 90 88 87 84 81 86 90 78 72 74 73 73 58 49 47 38 35 33 27 22 17
5 5 4 4 4 3 3 3 3 3 3 3 3 3 3 3 3 3 3 3 3 3 3 3 3 3 3 4 4 4 4 4 3 2 2 2 2 3 7 11 13 16 17 18 18 14 13 19 26 31 38 51 60 64 69 70 76 85 83 79 74 75 82 87 90 91 91 92 91 86 86 86 87 90 80 74 80 78 71 55 39 36 34 33 32 27 22 18
7 7 6 6 5 5 4 4 4 4 4 3 3 3 3 3 3 3 3 3 3 3 3 3 3 3 3 3 3 4 4 4 4 3 3 2 2 2 4 9 12 14 16 17 19 18 15 16 22 27 32 46 61 64 70 74 76 80 78 75 73 72 80 86 90 92 88 91 94 85 86 93 91 88 81 77 81 78 75 60 34 28 32 31 30 28 24 20
10 9 8 8 7 7 6 5 5 5 4 4 4 4 3 3 3 3 3 3 3 3 3 3 3 3 3 3 3 4 4 4 4 3 3 3 2 2 2 5 10 13 15 16 17 19 19 17 18 23 27 38 59 64 65 70 71 74 77 77 75 71 74 79 84 90 90 93 97 91 89 94 91 85 83 80 78 75 72 63 42 31 31 29 28 29 25 22
14 12 11 10 9 8 8 7 7 6 6 5 5 5 4 4 4 3 3 3 3 3 3 3 3 3 3 3 3 3 4 4 4 4 4 4 3 3 2 3 7 11 14 15 15 18 21 20 17 20 24 31 51 64 66 71 68 68 75 78 77 72 68 71 78 85 91 95 94 94 94 94 89 82 85 85 81 83 75 66 56 38 29 25 24 28 26 22
18 17 15 14 12 11 10 8 8 8 7 7 7 6 6 5 5 4 4 4 4 3 3 3 3 3 3 3 3 3 3 3 3 4 4 4 4 3 3 2 3 8 12 13 14 16 18 21 21 18 22 26 39 58 65 68 67 69 75 74 72 70 66 67 73 77 81 87 89 89 92 89 85 82 89 87 78 83 76 69 70 46 26 23 20 26 27 21
24 22 20 18 17 15 14 12 10 9 9 8 8 8 7 7 6 5 5 5 5 4 4 3 3 3 3 3 3 3 3 4 3 3 4 4 4 3 3 3 2 4 7 10 12 15 16 19 21 19 21 22 27 41 52 61 64 68 75 71 66 66 63 60 67 75 72 75 83 86 83 75 78 85 89 84 72 75 73 70 76 54 30 25 19 20 26 24
25 26 26 24 22 20 18 16 15 13 12 11 10 10 9 8 8 7 6 5 5 5 5 4 4 4 4 3 3 4 3 4 3 3 3 3 4 4 4 4 3 3 3 6 9 13 14 15 18 22 23 20 20 25 38 57 62 60 65 63 57 55 58 60 67 77 72 70 79 82 79 73 82 91 84 79 71 71 74 73 76 61 40 30 22 16 20 24
21 23 25 27 27 25 23 21 19 17 16 14 13 12 11 11 10 9 8 7 6 6 6 5 5 5 4 4 3 4 3 4 3 3 3 3 4 4 4 4 4 4 2 3 6 9 12 12 15 20 21 19 18 17 24 43 50 47 54 57 53 53 60 66 72 81 78 74 78 81 85 85 88 89 80 77 74 71 74 74 71 64 52 38 28 20 16 21
20 19 20 23 26 28 27 25 24 22 19 17 16 14 13 13 12 11 10 9 8 7 7 6 6 5 5 5 4 4 4 4 4 3 3 3 3 3 4 4 4 4 4 3 3 6 9 11 12 15 17 19 19 19 19 29 35 37 48 59 62 63 67 67 71 79 79 77 77 80 90 90 84 83 83 82 79 76 74 73 70 63 59 49 35 27 19 18
20 20 20 19 20 23 26 27 27 26 24 21 19 17 15 14 13 13 11 11 10 9 8 8 7 7 6 6 5 5 4 4 4 4 3 3 3 4 3 4 4 5 5 4 3 3 5 8 11 11 14 18 19 20 18 19 24 30 44 60 66 67 69 70 71 72 74 78 77 76 83 85 85 84 83 81 80 84 76 69 69 63 61 56 42 34 25 17
19 20 20 20 19 19 21 24 26 27 26 24 22 20 18 16 15 13 13 11 11 10 9 9 8 8 7 7 6 6 5 5 5 4 4 4 3 4 3 4 4 4 5 5 5 3 3 5 7 9 10 14 15 17 18 16 17 22 31 43 52 57 64 70 75 72 71 77 75 69 68 76 86 83 78 75 77 85 80 67 65 64 62 59 48 39 31 20
18 18 19 19 19 19 19 20 23 25 25 25 24 23 21 19 17 15 14 12 11 10 9 9 9 8 8 7 7 6 6 6 5 5 5 4 4 4 4 4 3 4 4 5 5 5 4 4 4 7 8 10 11 12 16 19 19 19 18 23 32 44 57 66 74 75 73 76 73 67 63 67 77 80 78 77 74 78 80 71 65 66 67 64 55 44 38 26
22 20 19 19 19 18 18 18 20 23 24 25 23 23 23 21 20 18 16 14 12 10 9 9 8 8 7 7 7 6 7 6 6 6 6 5 5 4 4 4 4 4 4 4 5 5 5 4 3 4 5 7 9 9 11 16 22 23 22 23 27 38 55 62 68 75 77 77 74 67 65 67 73 79 78 73 70 70 75 77 72 70 72 69 62 50 44 33
24 25 22 21 20 19 18 18 18 20 23 24 24 23 23 23 22 21 19 16 14 12 10 9 8 8 7 7 7 6 6 6 6 6 6 6 5 5 5 4 4 4 4 4 4 5 5 5 5 4 4 5 6 7 8 10 18 22 25 29 32 39 55 63 67 74 79 82 80 72 68 72 77 81 79 73 69 66 70 79 78 74 73 71 65 56 49 38
17 25 27 25 22 21 20 19 18 17 20 22 23 24 23 23 23 23 22 20 18 15 11 10 9 9 8 8 7 7 6 6 6 5 5 5 5 6 6 5 5 4 4 4 4 4 4 5 6 5 5 5 4 5 7 7 10 16 24 32 36 41 55 68 69 68 73 80 83 78 73 76 82 81 79 75 69 64 67 76 79 74 70 68 65 61 55 43
9 16 25 27 25 22 20 19 19 17 17 19 22 24 24 24 24 24 23 22 21 19 15 12 10 9 10 9 8 8 7 6 6 6 5 5 5 5 5 6 5 5 5 4 4 4 4 4 5 5 6 5 5 4 5 6 6 9 18 31 41 44 54 70 72 64 66 68 68 68 67 71 76 74 70 67 63 61 63 69 76 75 67 63 64 65 62 48
9 10 17 24 26 24 20 18 18 18 18 19 20 22 22 22 25 25 24 24 23 22 20 17 14 12 11 11 10 9 8 8 7 6 6 5 5 5 5 5 5 5 5 5 5 4 4 4 4 4 5 5 7 6 5 5 5 5 10 23 35 37 43 62 73 69 69 68 58 49 49 57 62 61 61 62 56 56 63 66 70 73 70 64 63 66 66 55
12 9 11 17 22 24 22 19 17 17 17 19 21 22 21 21 23 24 22 22 22 23 23 21 19 16 15 13 11 11 10 9 9 8 7 6 6 6 5 5 4 5 5 5 6 5 4 4 4 4 4 5 7 8 7 5 5 5 5 12 21 26 31 46 61 65 69 73 62 45 40 48 56 57 61 63 55 51 60 66 66 68 71 69 66 69 71 62
17 13 11 13 17 21 22 20 18 16 16 16 19 22 23 22 23 23 20 20 20 21 22 22 21 20 18 17 14 13 12 11 11 10 9 8 7 6 6 5 5 4 4 5 5 5 5 4 4 5 4 5 5 7 8 7 5 4 5 6 10 19 27 38 50 56 61 66 64 58 51 50 56 63 69 68 62 58 57 63 68 66 67 72 70 68 70 65
20 21 19 15 16 19 20 20 20 19 19 18 18 21 22 22 23 22 19 19 19 18 19 20 21 20 20 19 17 16 14 13 12 10 9 9 7 7 6 6 6 5 4 4 4 4 5 5 5 6 5 5 5 5 7 8 7 5 5 4 5 12 23 40 55 59 60 61 63 64 60 55 60 72 76 70 69 73 70 70 75 69 67 75 75 68 67 66
20 25 27 24 23 23 22 22 22 22 22 22 23 23 21 21 21 20 18 18 17 17 17 17 18 18 18 18 17 16 15 13 12 11 9 8 8 8 7 7 6 6 5 5 4 4 4 5 6 6 6 5 5 5 5 6 7 7 6 4 4 6 16 41 62 65 61 60 63 68 68 63 66 75 75 71 73 78 80 82 84 76 69 75 76 70 65 61
21 23 28 30 31 31 29 26 26 26 24 24 24 23 22 21 20 20 19 17 16 16 15 16 16 17 16 16 15 15 14 13 12 11 9 8 9 8 8 7 6 6 6 5 4 4 4 4 5 6 6 6 5 5 5 5 6 8 8 6 4 3 11 39 66 67 60 57 50 60 76 66 56 64 66 68 74 73 73 78 83 81 72 67 65 64 64 59
22 20 22 26 30 34 35 33 32 30 28 27 25 24 23 22 22 21 19 17 16 15 14 15 14 15 15 14 14 14 13 13 12 11 10 9 9 8 8 8 7 7 6 6 5 4 4 4 5 5 5 6 6 5 5 5 5 6 9 8 6 4 8 35 64 64 59 60 46 50 79 72 49 57 64 66 73 71 69 70 77 83 75 61 53 57 66 64
19 17 16 17 20 26 30 32 31 29 28 27 25 25 23 21 21 20 18 16 15 14 13 13 14 14 14 13 13 13 12 12 11 10 10 9 8 8 8 7 8 7 6 6 5 5 5 4 4 4 5 6 6 6 5 5 5 5 8 10 9 5 8 31 58 60 57 67 59 47 64 71 55 55 63 68 72 70 70 69 74 81 75 64 54 58 69 69
13 11 10 11 12 14 17 20 21 21 21 20 20 19 18 16 15 15 15 12 12 14 11 11 14 16 16 14 13 12 11 10 10 10 9 8 8 7 7 7 7 7 7 6 6 5 5 4 4 4 4 4 5 6 6 6 5 5 7 12 12 7 10 27 46 55 59 64 63 50 48 59 59 61 70 76 76 74 72 71 74 78 76 68 60 61 71 75
7 6 6 7 8 8 9 10 10 10 10 11 12 11 11 10 8 12 11 9 16 23 17 12 13 15 17 18 17 14 12 10 9 10 8 7 7 6 6 6 6 7 7 6 6 5 5 5 4 4 4 4 4 5 6 6 5 5 7 11 14 9 12 30 38 47 59 62 62 55 49 58 66 71 77 74 75 79 75 69 70 76 78 69 62 65 74 80
5 5 5 5 5 5 5 5 5 6 5 5 6 5 6 6 7 11 8 13 30 34 28 26 21 16 15 15 18 19 16 14 11 11 11 9 8 7 6 6 5 6 6 6 6 5 5 5 4 4 4 3 4 5 6 7 6 6 7 11 16 12 12 29 37 38 50 61 64 54 48 63 74 74 72 61 61 70 72 71 71 77 78 68 64 70 79 87
4 4 4 4 4 4 4 4 4 4 4 4 4 6 9 10 12 14 11 20 37 35 30 34 31 26 22 17 17 17 16 15 14 15 16 13 11 9 7 6 6 5 5 6 6 6 6 5 6 6 5 4 4 5 5 6 6 6 8 9 16 17 12 20 33 37 42 50 62 58 51 62 66 61 61 53 51 61 69 73 74 76 76 69 68 72 78 85
4 4 4 4 4 4 3 4 4 4 4 3 5 15 23 22 20 17 17 27 38 33 29 30 31 34 32 26 22 17 14 14 14 15 16 14 13 11 8 7 6 5 5 5 5 6 5 5 6 5 6 7 5 4 5 6 6 6 8 8 13 19 16 14 22 31 32 36 52 61 59 60 52 44 46 39 39 57 69 76 79 76 70 67 70 72 72 76
5 4 4 4 4 4 4 4 4 5 4 3 12 28 34 28 22 18 22 37 48 46 40 35 34 36 33 28 25 20 16 15 13 13 13 13 12 11 9 8 7 7 6 5 5 5 5 5 5 5 7 9 7 6 5 4 6 7 7 8 10 18 20 16 16 19 19 22 39 57 63 63 56 47 40 29 28 43 55 68 79 75 68 69 73 74 72 74
7 6 5 5 4 4 4 5 5 5 5 7 19 34 34 28 27 24 25 37 48 51 50 49 50 47 36 29 26 21 18 16 16 18 18 14 11 10 9 7 8 7 6 6 5 5 5 5 5 5 7 8 7 6 6 7 8 7 9 9 9 16 19 16 14 13 13 14 27 48 60 63 64 59 47 34 29 32 39 53 67 67 64 68 72 73 71 72
8 7 6 5 5 5 5 5 6 7 11 19 30 36 33 31 32 34 34 33 33 37 42 49 56 56 45 34 28 22 15 15 19 23 24 16 10 9 8 6 7 6 6 6 5 5 5 5 5 7 10 9 5 5 7 8 5 4 10 12 11 14 16 15 15 14 14 14 19 40 58 62 67 68 59 47 38 33 34 42 57 64 61 62 66 65 63 64
8 7 7 6 5 6 6 5 8 12 19 30 38 37 35 34 32 38 45 41 36 41 46 50 57 60 52 38 32 25 14 13 20 24 26 19 8 7 7 6 6 6 6 6 6 6 5 5 7 8 9 6 4 9 9 8 14 17 15 14 16 18 17 17 20 18 15 13 14 30 54 63 62 65 65 58 51 45 38 35 45 56 56 53 54 55 58 64
7 7 7 7 7 8 8 7 11 19 26 30 35 37 37 36 30 33 43 47 49 56 65 69 68 64 55 40 33 30 18 17 24 23 22 18 9 6 7 5 6 6 6 6 6 7 7 9 10 10 9 5 9 20 16 10 26 37 30 27 27 24 23 23 26 27 19 12 10 17 36 49 54 59 64 65 62 52 43 40 41 45 46 41 39 48 61 68
7 8 7 6 7 9 10 11 13 20 27 29 33 37 35 34 34 35 42 52 58 63 75 80 66 52 49 38 29 25 18 21 29 22 13 13 9 7 6 5 6 5 5 5 5 6 9 13 15 14 15 13 16 25 22 12 23 38 38 37 32 26 29 31 30 32 27 21 17 12 15 26 36 43 48 60 68 56 43 43 42 38 39 34 31 44 63 72
8 8 7 8 11 13 15 16 18 20 26 31 33 34 32 34 40 41 42 50 58 68 81 77 51 36 38 32 22 18 14 20 27 19 9 10 9 7 7 6 6 6 5 5 5 5 7 13 18 17 20 28 27 27 30 24 22 33 37 31 30 37 47 49 42 36 34 34 30 22 15 14 20 25 24 31 52 62 60 56 52 48 44 34 27 31 47 64
11 9 11 13 15 18 20 22 25 26 29 32 31 31 35 41 43 42 38 39 47 69 88 78 50 35 33 29 22 17 15 17 21 17 12 12 11 9 8 7 6 6 5 5 5 5 6 10 16 17 23 39 40 34 44 44 30 37 52 47 40 46 53 53 45 39 40 40 39 38 30 20 24 35 33 23 31 58 77 76 72 73 62 42 28 24 26 38
13 14 18 21 22 26 30 31 33 33 32 33 31 34 44 47 45 45 43 36 36 50 67 63 44 30 27 28 25 20 17 16 18 20 19 17 14 12 10 8 7 6 6 7 7 7 6 7 12 20 27 39 45 43 53 60 48 49 68 70 57 50 46 40 38 41 44 43 43 46 42 41 47 52 50 41 34 43 60 66 66 72 72 57 39 29 22 17
20 27 30 31 34 38 38 35 36 36 35 36 37 43 53 48 36 33 34 32 29 28 32 34 30 22 21 25 25 22 19 18 19 21 19 15 13 12 10 8 8 7 7 9 10 9 8 6 9 25 37 42 48 51 53 64 68 65 70 73 66 56 47 42 43 46 45 41 41 41 44 57 63 56 48 42 31 26 30 32 32 41 60 70 61 45 27 16
32 42 42 43 43 41 38 40 46 48 43 38 37 42 48 42 28 22 23 24 24 21 19 21 22 20 17 19 22 22 22 22 21 17 14 11 11 10 9 9 8 8 7 9 11 12 12 9 7 20 38 49 61 63 53 62 81 80 74 75 71 60 54 54 54 52 49 42 36 32 40 61 68 63 60 52 37 29 25 20 16 21 35 49 55 45 26 26
32 41 47 51 47 40 38 45 54 54 46 37 31 32 33 30 25 23 23 22 20 20 19 19 19 19 17 16 19 21 21 21 18 13 12 12 11 10 9 9 8 9 9 8 10 11 12 12 9 11 20 40 72 83 62 61 87 92 77 74 77 73 69 67 63 64 66 60 49 36 33 48 58 59 67 71 61 45 33 29 26 22 26 27 22 19 24 43
26 39 54 53 48 46 42 42 46 44 41 37 34 33 32 30 29 28 27 25 23 22 22 22 21 21 20 17 18 20 21 20 16 15 15 13 13 12 10 11 10 10 11 9 9 9 9 9 9 10 10 20 60 93 81 70 90 100 83 73 80 84 78 71 68 73 80 77 66 48 30 35 45 47 55 67 65 49 37 42 41 29 29 26 13 21 45 61
21 42 59 51 46 49 45 40 41 40 38 37 35 35 33 30 29 29 27 26 25 24 24 26 25 23 24 23 21 21 22 21 19 17 17 14 13 12 11 12 11 10 9 9 8 8 8 8 6 8 9 8 34 77 95 92 94 100 91 76 76 86 85 78 74 77 84 87 77 54 37 45 57 58 59 60 55 47 42 49 51 39 34 29 27 50 69 68
15 31 45 44 46 51 47 45 48 47 44 39 36 35 32 30 29 28 26 24 24 23 22 23 22 22 24 23 20 19 21 21 20 18 17 15 13 11 11 11 10 10 9 9 10 8 8 9 7 6 8 7 13 41 77 97 97 98 98 83 72 81 89 88 83 80 81 88 88 64 43 55 70 67 67 66 58 53 50 51 54 50 43 35 41 65 70 60
14 18 22 35 53 55 49 51 53 52 49 41 37 38 38 40 39 35 31 26 22 20 18 17 17 18 20 20 17 17 18 17 16 17 16 15 14 12 12 10 9 10 9 8 9 9 7 8 8 7 7 7 7 14 38 66 81 92 102 93 74 74 88 93 86 83 83 85 91 73 44 51 69 68 69 74 66 56 52 54 57 58 53 43 43 54 53 46
15 15 12 29 57 63 57 59 61 58 55 48 42 41 42 45 46 43 38 29 21 18 16 15 14 14 17 18 16 15 16 14 14 15 15 14 14 12 11 10 9 8 8 8 7 7 8 7 7 7 7 7 7 7 12 26 43 64 91 103 87 69 81 95 87 83 86 88 90 74 47 49 65 67 69 74 70 58 50 51 56 60 59 50 44 45 41 41
13 16 15 24 45 57 58 58 55 51 51 51 49 46 46 47 46 41 36 27 20 17 16 16 15 14 15 16 15 15 16 15 14 14 14 13 13 13 12 11 10 9 8 8 8 7 7 7 6 6 6 6 7 7 8 10 16 27 50 84 97 79 71 85 91 89 86 88 93 78 57 58 65 63 67 74 74 62 50 56 61 59 61 57 49 48 44 40
11 13 16 17 23 31 36 37 35 35 41 48 49 44 39 35 30 25 22 18 15 14 14 14 14 13 13 14 14 14 14 14 14 15 15 15 14 13 13 12 12 12 10 9 9 9 8 7 6 6 6 6 6 6 7 7 10 14 17 38 74 86 74 66 77 93 93 88 92 87 74 69 63 59 64 72 77 64 48 61 69 56 61 68 55 49 51 49
12 11 13 13 12 15 21 26 30 33 35 35 32 26 21 17 14 13 12 11 10 10 10 10 9 9 10 10 10 11 12 13 15 16 16 15 14 13 14 15 15 14 13 13 11 10 10 8 8 7 5 6 6 6 7 5 5 11 11 11 31 64 83 76 68 81 95 93 88 88 90 81 60 56 65 68 78 74 53 57 68 55 58 73 63 49 47 50
13 12 11 11 11 14 19 21 23 23 21 18 16 13 11 11 10 10 10 10 10 10 10 9 9 8 9 9 9 11 14 16 18 18 16 14 14 16 18 18 19 18 17 18 17 16 15 13 11 10 7 7 9 7 7 7 5 6 11 11 10 24 59 87 85 77 83 92 90 86 94 91 67 58 66 67 75 83 66 56 65 62 57 61 59 53 43 34
Wind_Speed
16 17 17 18 18 18 19 19 19 20 20 20 20 20 20 20 19 19 18 18 17 17 17 16 15 15 15 15 15 14 14 15 16 17 19 18 18 18 17 15 16 18 17 16 17 18 18 18 18 17 15 15 13 12 11 9 8 7 8 6 3 2 2 3 5 5 5 5 6 6 7 6 5 7 8 8 7 8 8 2 3 5 6 6 5 5 6 7
16 17 17 17 17 18 18 18 18 19 19 20 20 20 20 20 20 20 20 19 19 19 19 18 17 16 16 16 15 14 14 15 17 17 18 18 19 19 17 16 16 17 17 16 17 18 19 19 19 18 17 16 15 14 12 11 9 9 9 9 6 3 3 2 3 4 4 3 5 6 7 6 5 6 7 8 9 10 8 3 3 6 6 6 5 6 6 6
16 16 17 17 17 17 17 17 18 18 18 19 19 20 20 21 21 21 20 20 20 20 20 19 18 18 18 17 17 15 15 16 16 17 17 17 19 19 18 17 17 17 17 16 15 16 17 18 20 19 18 17 17 16 14 12 11 11 12 11 8 4 3 1 2 4 3 2 4 7 7 7 6 6 6 7 9 9 6 4 4 7 5 6 5 6 6 6
18 18 18 18 17 18 18 18 18 18 18 18 19 19 20 20 20 21 21 21 21 21 21 20 20 20 19 19 18 17 17 17 16 16 17 17 18 19 20 19 18 18 17 16 15 14 14 16 19 20 19 18 17 17 16 14 14 14 13 12 11 6 3 1 3 5 5 5 5 6 7 7 6 5 6 7 8 8 6 4 4 7 4 4 5 7 7 6
22 21 20 19 19 18 18 18 18 18 18 18 18 19 19 19 20 20 20 20 21 21 21 21 21 21 21 20 20 19 20 19 17 17 18 17 18 19 20 20 20 19 17 16 15 14 13 15 17 19 19 17 17 18 17 16 16 14 12 12 12 9 7 3 5 8 8 7 6 5 7 9 7 5 6 6 6 6 6 4 5 6 4 3 4 6 6 6
25 24 23 23 22 21 20 19 19 19 19 18 19 19 19 19 19 19 20 20 20 21 21 21 21 22 22 22 21 20 21 21 19 19 18 18 18 18 19 20 21 20 19 18 16 15 15 14 15 17 18 17 17 18 17 16 15 14 13 13 12 11 10 5 6 8 8 7 5 4 6 9 8 6 6 6 5 5 5 5 4 4 3 3 3 5 6 6
27 27 26 25 25 25 24 23 22 21 20 20 20 20 20 20 20 20 20 20 20 20 21 20 21 21 22 22 22 21 22 22 22 21 20 18 18 18 18 20 21 22 22 20 18 17 16 15 15 16 17 18 19 19 19 19 17 14 14 15 14 11 10 7 5 6 7 6 4 4 4 4 5 5 6 7 5 4 4 5 3 3 3 3 4 5 5 5
29 29 28 28 27 27 27 26 25 24 24 23 22 22 21 21 21 21 20 20 20 20 20 20 20 21 22 22 22 21 22 24 24 23 22 20 20 19 18 19 21 23 23 21 20 18 16 15 15 15 16 19 21 22 21 20 20 19 17 17 16 13 12 10 6 3 5 5 3 3 1 1 1 3 7 7 5 3 3 5 3 2 3 3 3 4 4 3
31 30 30 30 29 29 29 28 28 27 27 26 25 25 24 23 23 22 22 22 21 20 20 20 20 20 21 21 21 21 21 25 26 25 24 22 21 20 19 19 21 22 22 22 21 19 17 17 17 17 18 21 22 23 21 21 22 22 21 20 19 16 14 13 9 5 4 4 3 1 2 3 3 3 7 5 5 3 2 4 3 1 3 3 2 3 3 2
32 32 31 31 31 31 30 30 29 29 29 28 27 27 26 26 25 24 23 23 23 22 21 21 21 20 20 20 20 20 21 25 27 26 25 23 22 22 20 20 21 21 22 22 22 22 21 20 21 21 21 19 19 19 19 20 22 21 20 19 18 16 13 13 11 8 6 3 2 1 1 2 2 1 4 4 5 3 2 3 2 2 3 2 2 2 2 2
33 32 32 32 32 31 31 31 31 30 30 30 29 28 28 27 27 27 26 25 24 24 23 22 21 21 21 21 20 20 21 24 26 26 24 23 23 23 22 21 21 21 21 22 23 24 24 23 23 22 20 17 16 16 17 20 21 20 18 17 15 14 12 10 10 9 6 4 4 4 2 1 2 2 1 2 3 3 2 2 4 3 4 2 1 1 1 2
33 33 33 33 33 32 32 32 32 32 31 31 30 30 29 29 28 28 27 26 26 25 25 23 23 22 22 22 21 21 21 22 23 24 23 23 23 24 23 23 22 21 21 21 23 24 25 25 24 22 20 19 17 16 16 19 20 19 18 17 16 15 13 10 9 9 7 6 7 7 6 4 3 3 2 2 2 2 2 5 5 3 3 2 1 0 1 2
32 32 32 32 32 33 33 32 32 32 33 32 32 31 31 30 30 29 28 28 27 27 26 25 24 23 23 23 22 22 22 22 22 22 22 22 23 24 24 24 24 23 22 22 22 24 25 25 24 24 23 22 19 14 13 14 16 18 19 18 18 17 15 11 10 10 8 8 10 9 9 7 5 5 4 3 3 4 4 6 5 3 3 3 2 1 2 3
33 32 31 31 31 32 32 32 32 32 33 33 33 33 32 32 31 31 30 29 28 27 27 27 26 25 25 24 23 23 23 23 23 22 22 22 22 23 24 25 25 25 24 23 22 22 23 24 24 25 24 22 19 15 13 11 11 13 15 16 17 17 16 14 13 11 8 9 10 10 10 7 4 4 4 3 4 5 5 6 4 3 3 3 3 2 3 4
34 33 31 31 30 30 31 31 32 32 32 33 33 33 33 33 32 32 32 31 30 29 28 28 27 26 26 25 24 24 24 24 24 24 23 22 22 22 23 24 24 25 25 25 24 23 23 23 24 24 24 23 21 19 17 13 11 10 9 11 13 15 17 17 15 12 10 10 10 10 9 7 5 5 4 4 5 5 6 6 5 4 4 4 4 4 3 4
34 33 31 30 30 29 29 29 30 31 31 32 32 33 33 33 33 33 32 32 32 31 30 29 28 27 27 26 25 25 25 25 25 25 24 24 23 23 22 23 23 24 25 26 26 25 24 22 22 23 24 24 22 21 19 16 14 12 9 9 9 12 15 16 16 14 13 11 10 10 9 6 5 5 5 6 7 7 7 7 7 6 5 6 6 5 4 5
33 33 31 30 29 29 28 28 29 29 30 31 31 32 32 32 32 33 33 33 32 32 32 31 30 29 29 28 27 28 27 26 26 25 25 25 24 24 23 23 23 24 25 26 26 26 25 23 23 23 24 24 23 22 19 16 16 16 13 11 10 10 11 13 15 14 13 12 12 13 11 7 5 4 6 8 10 9 8 8 8 8 8 8 7 6 6 5
30 31 31 29 28 28 28 27 28 28 28 29 30 31 31 31 32 32 32 33 33 33 33 32 32 31 31 30 30 30 29 28 28 27 26 25 25 25 25 24 25 25 25 25 25 26 26 25 24 24 23 22 21 20 18 17 19 20 18 16 16 16 14 11 12 13 13 14 15 15 13 9 7 5 5 9 11 10 9 10 9 9 10 9 8 7 7 6
27 28 29 29 28 28 27 26 27 27 27 28 28 29 30 30 31 31 32 32 33 33 33 33 32 32 32 32 32 31 30 30 30 29 29 28 27 26 25 26 26 26 26 25 25 25 26 26 26 24 21 20 18 17 18 21 23 23 23 23 23 22 20 18 14 13 12 12 13 15 14 9 7 7 4 7 10 11 11 11 10 10 11 11 9 8 8 7
26 25 27 27 27 27 27 26 26 27 27 27 27 28 29 29 29 31 31 32 32 33 33 33 33 32 32 33 33 33 32 31 31 31 31 30 30 29 28 27 27 27 27 26 26 25 26 26 24 22 21 21 20 19 21 24 25 25 25 26 25 22 20 20 19 17 14 10 10 12 12 8 7 6 2 6 9 10 11 12 11 11 12 12 12 10 10 10
25 23 24 25 25 26 27 26 26 26 27 27 28 28 28 28 28 29 30 31 31 32 33 33 33 33 32 34 34 34 34 33 32 33 33 32 32 32 31 30 29 28 28 28 28 27 27 26 22 21 22 24 23 22 23 24 25 26 26 26 25 23 18 18 19 18 16 13 10 11 10 7 6 4 4 8 7 8 11 11 12 12 12 13 14 12 12 11
25 23 22 23 23 24 25 26 25 25 25 26 27 27 28 28 28 28 29 29 30 31 32 32 33 33 33 34 35 35 35 34 33 33 34 33 33 33 33 32 32 31 30 29 29 29 27 25 22 21 22 23 24 25 25 24 25 26 27 27 26 24 20 19 18 15 15 13 10 11 10 8 8 7 9 9 8 9 10 11 12 13 12 12 14 14 14 12
25 23 22 22 22 22 23 24 24 24 24 24 26 26 27 28 28 28 28 28 29 29 30 31 32 32 33 34 34 34 35 34 33 33 34 33 33 34 34 34 34 34 32 31 31 30 28 26 24 24 24 24 24 26 26 26 25 26 26 26 25 24 23 22 20 17 17 16 12 10 11 12 13 12 10 8 9 10 10 11 12 12 12 13 14 15 15 14
25 23 21 21 21 20 21 22 22 22 22 22 23 25 25 25 26 27 27 27 28 28 29 30 30 31 32 33 34 34 34 34 33 33 34 33 33 34 34 35 35 35 35 34 33 32 30 28 28 28 27 26 26 26 28 27 26 26 25 24 24 24 25 25 26 25 23 22 17 14 17 19 16 12 10 10 10 9 9 11 12 13 14 15 15 15 16 14
25 23 21 21 21 20 20 21 21 21 21 20 21 23 23 23 23 24 25 25 26 27 28 29 30 30 31 32 32 33 34 33 32 32 33 33 33 34 34 35 36 36 37 36 36 34 32 31 30 30 29 28 27 27 28 28 28 27 25 23 22 23 25 28 30 28 25 24 20 18 22 23 18 14 13 12 10 9 11 12 12 15 16 17 16 15 15 14
24 23 20 19 20 19 19 19 19 19 20 19 19 21 21 20 21 21 22 23 24 25 26 27 28 28 29 31 31 33 33 32 31 32 33 33 34 34 34 35 36 37 38 38 38 37 34 33 32 32 31 30 29 27 27 28 29 29 25 23 23 23 26 30 32 30 25 23 22 22 23 22 19 18 17 15 12 13 14 12 12 16 16 16 16 14 14 14
22 22 20 19 19 19 18 17 17 17 17 17 17 18 18 18 18 19 20 21 22 23 23 25 25 25 27 29 29 31 32 32 31 31 33 34 34 34 34 35 35 37 39 39 38 38 36 36 35 34 33 32 31 29 28 28 29 28 25 25 25 25 28 32 34 34 29 26 26 25 24 24 22 21 19 18 16 16 15 12 12 15 15 15 15 14 13 14
20 20 19 18 18 17 16 16 15 14 15 15 15 15 16 15 16 16 18 19 19 20 21 23 24 23 25 27 26 28 29 30 30 30 33 33 32 34 34 35 36 37 39 39 38 38 38 38 37 37 35 34 33 32 31 30 29 28 26 27 27 27 31 34 36 37 36 33 31 29 28 28 27 24 23 22 18 16 13 10 11 14 14 15 15 14 13 15
18 18 17 16 15 14 13 13 13 12 13 13 13 13 13 13 13 13 15 16 16 18 20 22 23 24 25 25 24 25 26 29 29 27 29 30 29 32 33 34 36 37 38 39 38 38 38 38 38 37 36 35 35 34 34 33 31 30 29 29 28 29 33 37 38 38 40 40 35 32 32 31 29 26 26 25 20 14 8 5 8 12 13 14 14 13 14 16
17 15 15 13 12 11 10 10 10 11 11 11 11 11 10 11 11 11 13 14 15 18 19 21 23 23 23 24 24 25 25 27 27 24 24 27 28 30 33 34 36 37 38 39 38 39 39 39 37 36 36 36 36 36 35 34 34 33 32 30 31 32 34 39 41 40 42 43 38 34 34 33 31 29 27 23 15 10 6 4 6 10 13 13 12 14 14 16
16 14 12 11 10 9 9 9 9 9 10 11 10 9 9 10 11 12 13 15 17 19 20 22 23 22 21 21 22 24 25 25 26 24 24 27 29 30 33 34 35 36 37 38 38 39 40 40 39 37 35 36 37 37 36 36 36 36 34 33 33 34 35 38 42 43 45 44 39 37 37 36 34 32 29 23 15 11 10 8 4 7 11 11 11 13 14 15
16 13 11 11 10 10 9 9 9 9 9 11 11 11 11 12 13 15 17 18 19 19 20 20 19 18 20 21 21 22 23 22 23 23 22 26 29 30 31 32 32 33 34 36 36 36 37 38 40 39 36 36 38 38 37 37 37 37 36 36 36 36 36 38 41 43 44 43 40 39 39 37 35 33 32 27 20 16 12 11 10 9 9 9 9 12 14 16
16 14 12 11 11 10 9 8 8 8 8 10 11 12 14 13 13 15 17 18 19 19 18 17 15 15 17 19 20 19 19 18 17 18 19 24 27 28 28 30 30 31 32 34 34 34 34 35 37 38 38 40 41 39 38 37 38 38 36 36 36 36 37 38 40 42 43 42 40 40 41 40 36 34 33 29 23 19 15 12 14 15 13 12 11 12 15 17
15 14 12 11 10 9 8 7 6 6 6 9 12 14 14 12 12 13 15 15 16 17 16 14 14 14 15 17 18 18 19 18 16 17 18 22 27 27 27 29 30 30 31 32 34 33 33 33 33 35 38 42 43 41 39 40 41 40 38 36 36 36 37 38 39 40 42 42 40 41 43 44 39 33 31 29 26 24 21 16 15 15 16 16 15 15 15 17
14 12 11 9 9 8 6 5 5 5 7 9 11 12 12 11 11 13 14 14 14 15 14 13 14 15 17 19 18 17 20 20 17 17 17 19 24 25 26 28 29 29 30 31 31 31 31 31 31 34 37 41 42 40 40 41 39 38 39 37 36 36 37 38 40 40 40 42 41 43 47 48 43 36 31 29 30 28 25 23 20 17 16 16 16 17 16 15
14 12 10 9 7 6 5 4 5 7 8 10 10 10 10 11 12 13 14 14 13 13 13 12 13 16 18 21 20 18 21 20 18 19 18 18 21 22 21 23 24 25 27 28 29 29 28 29 29 31 33 36 38 37 38 39 36 35 36 36 36 37 37 38 39 39 40 42 41 43 47 48 45 40 34 31 32 30 28 28 27 24 21 18 15 15 16 16
14 11 11 9 7 5 5 4 5 8 9 8 8 9 10 10 12 12 12 13 13 12 12 11 13 15 17 21 23 21 22 21 20 21 21 19 20 21 20 20 21 22 23 25 26 26 25 26 28 29 28 30 34 35 37 38 37 36 37 37 37 37 37 38 37 37 38 40 40 39 41 43 45 44 40 36 33 30 29 31 31 30 29 25 19 15 14 14
14 11 10 8 6 6 5 5 6 7 8 7 8 9 9 9 11 11 11 12 13 14 13 12 12 13 16 19 21 22 23 23 22 21 21 20 21 22 21 21 22 22 22 22 23 23 24 24 27 29 27 27 31 33 34 36 37 38 39 40 40 36 35 36 36 37 36 37 37 34 33 36 38 36 35 37 37 33 30 30 31 31 31 28 25 22 18 16
16 11 9 7 6 5 5 5 5 5 6 6 6 7 7 9 10 10 10 11 13 16 18 16 14 14 15 16 17 20 22 23 22 21 19 19 20 21 21 22 22 22 21 21 21 22 22 23 26 28 27 27 29 31 32 34 36 36 35 36 39 39 38 38 38 38 37 36 33 29 26 26 24 20 20 27 34 36 34 31 31 32 31 30 29 29 26 21
17 12 9 7 5 3 3 3 2 3 4 4 4 4 6 8 9 9 10 10 12 16 18 18 16 15 15 15 15 18 20 21 19 17 15 15 17 19 20 21 21 21 20 19 21 21 21 22 23 26 26 28 29 31 32 34 34 34 33 34 37 39 40 40 39 37 37 36 34 29 22 19 19 21 22 25 32 38 39 38 37 37 35 32 32 33 31 25
18 13 10 7 4 3 2 2 2 1 2 2 3 4 5 6 7 7 9 9 10 12 14 15 16 15 14 14 15 16 18 17 14 11 12 14 16 18 20 20 21 21 19 19 19 20 23 23 22 24 27 28 30 32 33 36 35 33 36 38 38 39 40 40 38 38 38 38 37 34 26 22 24 28 27 29 34 38 41 42 43 41 39 36 34 36 34 27
17 12 9 8 6 5 5 5 3 2 0 1 2 2 3 4 5 5 6 7 8 9 10 10 11 12 12 12 15 16 15 14 12 11 13 14 16 18 19 20 21 21 20 19 18 19 22 24 22 25 28 28 30 32 34 38 38 36 39 42 41 40 41 42 41 40 40 40 41 39 33 30 28 28 26 27 31 34 35 37 39 40 38 36 36 38 36 28
15 13 12 11 9 7 7 7 4 2 1 1 1 2 1 2 2 2 3 5 7 7 6 6 6 9 10 11 13 14 14 14 14 14 14 14 15 17 18 19 20 20 20 20 19 19 22 24 24 25 27 29 32 33 35 40 41 40 41 44 44 43 43 44 44 41 38 39 40 40 39 36 30 27 26 25 28 30 28 27 30 33 30 31 33 34 32 29
14 13 13 12 10 8 8 7 5 4 4 4 4 4 2 2 1 1 2 4 5 5 5 5 7 9 10 11 12 13 15 16 16 16 16 16 17 18 19 20 21 21 21 21 21 22 23 25 26 25 26 30 35 36 37 42 44 42 43 46 47 47 45 45 45 41 37 36 38 39 40 37 33 32 31 31 31 30 26 23 26 27 25 26 30 32 31 31
13 12 10 9 9 8 7 6 6 6 5 5 6 5 3 2 1 1 2 3 5 6 6 6 8 10 11 12 13 14 15 17 18 18 19 20 20 21 22 23 24 25 25 24 24 24 25 26 27 27 26 29 36 40 41 45 47 45 45 48 51 50 48 47 46 43 38 36 37 38 37 36 36 37 35 34 35 31 28 26 25 24 24 25 30 34 32 31
13 12 9 8 7 6 5 6 7 8 6 4 4 4 3 4 3 3 4 5 6 8 8 8 10 11 11 13 15 16 17 19 19 20 21 22 23 23 24 26 27 27 28 28 27 27 28 28 28 30 29 30 35 41 45 48 48 47 46 49 53 54 50 48 48 46 42 39 37 36 38 40 39 38 34 30 31 32 31 28 24 24 27 27 32 38 37 35
13 12 11 9 5 3 4 5 6 7 7 6 5 4 4 5 6 6 7 7 8 10 11 11 11 12 12 14 16 18 19 20 20 21 23 24 24 26 27 27 28 29 30 31 31 31 31 32 33 34 34 34 35 40 46 50 50 50 49 48 53 57 54 50 50 49 45 42 38 36 42 45 41 39 35 28 28 32 33 29 27 27 29 31 36 42 44 43
15 12 12 11 6 2 3 4 6 7 8 8 8 7 7 8 10 10 10 10 10 11 12 13 14 14 14 15 17 18 19 20 21 22 23 24 24 26 27 28 30 31 32 32 33 34 35 37 38 38 38 38 38 40 44 48 51 53 53 50 52 57 58 54 51 51 48 45 40 40 47 50 46 43 38 31 29 32 31 32 36 35 31 33 39 43 47 46
18 15 14 12 9 5 4 5 7 9 9 10 10 10 11 11 12 13 13 13 12 12 13 14 15 16 16 17 18 19 20 20 21 21 22 23 23 23 24 26 28 29 31 32 34 35 37 40 42 43 43 43 43 44 44 47 51 54 56 55 53 56 60 58 53 52 51 48 44 45 50 51 50 47 43 36 33 34 29 27 38 44 36 34 39 42 44 46
19 18 15 13 11 9 7 7 8 10 10 10 10 11 11 12 12 13 13 13 13 13 14 15 16 17 17 18 19 19 20 20 20 20 20 21 22 22 21 21 23 25 27 29 31 33 36 40 43 45 47 47 48 50 50 50 51 53 55 57 57 56 58 59 57 54 54 53 50 50 51 51 52 51 48 41 37 39 38 28 31 43 43 38 39 41 40 42
19 17 16 14 13 13 12 11 10 10 10 9 9 9 10 11 11 12 12 13 13 14 15 15 16 16 16 18 18 18 18 19 19 18 19 19 20 20 19 18 19 21 23 24 25 27 30 34 38 43 48 49 50 53 55 55 54 53 53 54 57 59 58 60 62 60 58 57 56 56 53 51 55 55 52 48 41 41 47 38 28 36 44 40 40 43 43 43
18 17 17 17 16 15 14 12 11 10 10 10 10 11 11 11 12 12 13 13 13 13 14 14 15 15 15 16 16 15 15 16 17 17 17 18 17 17 16 15 16 18 19 20 21 22 24 27 30 36 42 45 47 50 55 58 57 54 53 54 58 62 63 62 64 66 65 61 60 61 57 52 56 58 55 53 47 42 48 47 36 36 43 43 41 43 45 45
Wind_Direction
270 267 264 263 262 260 259 257 256 255 254 253 252 251 250 249 248 246 244 242 242 242 242 240 238 238 240 241 241 238 234 232 229 225 221 217 216 222 224 218 214 218 221 218 218 218 217 218 221 219 215 214 211 210 214 214 213 218 216 216 217 166 132 100 109 122 165 179 160 159 163 149 126 144 149 137 133 113 108 123 126 115 100 93 74 68 82 96
273 270 267 264 262 260 258 256 255 254 253 252 251 250 250 249 248 246 244 242 241 241 241 240 239 238 238 239 241 240 238 235 233 230 225 219 217 219 220 219 217 218 218 217 219 220 219 219 221 220 216 212 210 209 213 214 210 218 223 221 218 164 134 130 131 141 170 193 162 163 164 147 136 147 144 135 131 112 115 181 153 120 107 104 88 72 79 95
276 272 270 267 264 262 259 257 255 253 252 251 250 249 248 247 247 245 244 242 240 240 240 240 239 239 237 237 238 239 240 237 235 234 230 224 220 218 217 217 217 218 218 216 219 221 220 220 222 222 217 212 209 206 207 211 208 215 220 218 216 180 135 131 139 141 136 136 135 144 148 141 143 150 148 139 132 120 137 199 141 114 112 112 103 85 78 84
281 276 272 269 266 263 260 258 256 254 252 251 251 249 247 246 245 244 243 242 241 240 239 238 238 238 237 237 236 237 240 239 236 236 234 229 224 219 216 216 216 217 217 217 218 219 219 220 223 224 221 214 212 209 204 205 208 214 218 217 217 198 171 140 119 121 114 129 142 146 149 140 136 149 157 140 133 143 167 190 113 102 109 117 113 99 85 79
281 279 276 272 269 264 261 258 257 255 252 251 250 250 248 246 244 243 242 240 239 239 238 237 237 237 237 236 235 234 238 239 235 236 236 232 228 223 218 215 215 216 216 217 216 216 218 219 221 224 225 218 214 215 210 208 210 212 216 219 221 210 199 170 119 121 110 128 154 166 159 145 137 144 155 140 136 163 165 141 98 96 105 122 121 108 99 86
279 278 276 274 272 268 263 260 257 255 253 251 250 249 248 247 244 242 241 240 237 237 237 236 235 235 236 235 234 233 237 239 235 234 235 234 232 227 223 218 215 216 216 217 215 214 215 217 219 221 223 220 215 217 216 215 215 215 218 219 219 215 211 188 132 138 127 123 142 167 171 156 145 144 158 154 155 181 152 111 99 101 110 111 109 111 110 100
276 275 274 273 272 270 267 264 260 257 254 252 251 249 248 247 245 243 241 239 237 235 235 235 233 233 234 234 233 232 236 239 236 233 233 233 234 231 227 223 217 216 217 217 216 216 215 214 217 218 219 218 215 215 216 215 212 212 222 224 216 211 211 198 155 157 153 135 114 124 147 142 144 156 169 164 158 177 135 107 114 107 104 94 94 112 119 116
275 273 272 271 270 269 268 266 264 261 258 255 253 251 249 248 246 244 242 239 237 235 233 232 232 231 232 233 232 230 233 238 237 234 233 232 233 232 228 226 221 219 218 218 218 218 217 215 219 220 219 219 216 215 215 216 212 206 214 224 220 212 207 202 186 170 171 160 118 104 110 47 244 183 163 157 135 141 121 108 123 102 85 76 77 102 114 125
276 273 270 268 267 267 266 266 265 263 261 259 256 253 252 250 247 245 243 241 238 235 233 231 230 230 230 230 230 227 228 235 237 234 232 231 231 232 229 228 226 223 220 218 217 217 216 216 218 218 218 219 218 217 214 216 219 213 213 220 223 219 208 200 191 178 179 178 140 120 309 317 288 152 132 128 99 92 107 101 113 113 85 66 51 81 99 112
277 274 271 268 265 264 263 263 263 262 262 260 258 256 254 252 250 247 244 243 240 237 234 231 229 229 229 228 228 225 224 231 237 235 231 231 231 232 230 228 230 227 222 219 216 215 215 213 215 219 222 222 222 222 218 218 223 222 221 225 229 229 216 201 197 195 194 200 188 207 298 337 322 92 101 96 82 77 88 99 157 176 101 69 30 53 83 104
279 276 273 269 265 262 261 260 260 260 259 259 257 256 255 254 252 250 247 245 243 240 237 234 231 228 228 228 225 224 223 227 235 236 232 230 231 232 230 229 231 230 225 221 217 217 217 216 218 223 227 225 221 218 215 219 223 224 225 228 232 235 232 221 214 213 209 218 239 246 238 257 297 304 65 100 96 91 111 170 212 180 115 98 36 26 44 133
282 279 275 272 268 264 261 258 257 257 256 256 255 254 254 253 252 251 249 247 245 243 239 237 234 231 229 228 225 223 224 226 232 237 233 230 230 231 231 230 231 231 228 223 220 218 218 219 220 222 225 226 223 215 211 216 220 222 221 223 222 222 228 233 229 225 220 228 236 232 225 221 226 224 194 163 147 151 194 219 214 169 127 136 143 13 286 219
285 282 278 274 271 267 264 260 257 255 254 254 253 252 251 250 250 249 249 247 246 244 242 240 237 235 231 229 226 224 224 225 229 234 232 230 230 229 230 230 230 231 230 227 224 221 221 221 220 221 223 225 227 226 222 220 220 223 223 223 220 215 214 215 220 219 214 228 236 233 232 222 204 198 197 202 192 187 218 234 219 173 153 157 158 193 267 259
288 285 281 277 273 270 266 263 259 256 254 253 252 251 250 249 248 247 247 246 245 244 243 241 238 236 234 230 227 225 226 226 227 230 230 228 229 228 228 229 229 230 231 231 228 224 223 223 222 223 225 226 226 226 227 223 221 226 229 230 226 221 216 210 213 213 205 224 235 238 246 245 227 208 195 200 215 211 227 247 243 206 194 190 173 189 251 264
289 287 284 280 276 272 268 265 261 258 255 253 251 250 249 248 247 246 245 244 244 243 241 240 238 236 234 232 228 226 227 226 226 229 229 228 228 228 228 228 229 230 231 232 231 228 225 223 223 224 225 226 224 222 223 219 217 221 222 230 230 227 224 217 215 213 208 218 229 236 247 261 260 246 233 234 243 236 235 252 259 239 222 217 195 190 238 260
288 287 285 282 279 275 271 267 263 260 257 254 252 250 249 248 247 245 244 243 243 242 241 239 238 236 235 233 230 228 226 226 226 228 229 229 229 228 228 228 229 230 231 232 233 231 229 226 223 223 224 224 222 220 218 213 213 213 206 210 218 225 232 229 221 216 215 218 226 234 241 254 260 265 271 261 256 251 245 252 256 247 237 228 213 199 221 249
287 286 285 283 280 277 273 270 266 262 258 255 253 251 249 248 247 246 244 243 242 241 240 239 238 237 236 234 232 230 227 226 226 227 228 229 230 229 228 228 229 229 230 230 232 233 231 227 224 224 224 223 222 220 217 212 214 212 205 201 202 212 230 239 237 230 224 225 224 224 228 230 229 251 281 275 263 253 246 246 248 247 243 235 223 210 216 236
290 285 283 282 280 278 275 271 267 263 260 257 254 251 249 248 247 246 245 243 242 241 240 239 238 237 237 236 234 233 230 228 228 228 228 228 229 231 230 229 229 229 230 230 231 233 232 229 226 226 225 225 224 222 216 212 214 210 204 203 203 202 201 212 242 248 238 236 228 218 218 215 209 221 267 282 273 263 253 248 250 255 254 246 232 218 218 228
297 287 282 281 279 278 276 273 269 265 261 257 254 252 250 248 247 246 245 243 241 240 240 239 237 237 238 238 236 236 234 232 232 230 229 229 229 230 232 231 230 230 231 231 230 231 232 231 228 227 227 227 224 218 211 210 213 210 204 205 206 203 194 188 207 227 230 240 236 220 212 206 204 207 239 286 277 267 259 253 254 257 258 256 243 221 217 223
302 291 284 281 278 277 276 274 271 267 263 259 254 252 251 248 246 245 244 243 241 240 239 239 237 236 238 238 238 238 236 235 235 234 232 231 231 230 232 233 233 232 232 232 231 231 231 232 230 227 224 223 219 213 211 212 214 213 209 210 210 209 201 192 200 209 208 221 237 227 216 206 193 187 234 296 279 264 255 252 252 248 248 255 249 224 213 218
305 296 288 283 279 276 274 273 272 269 265 261 256 252 250 248 246 245 243 242 241 239 238 238 237 236 237 239 238 238 238 237 237 238 236 234 233 232 231 232 234 234 233 233 232 231 230 231 229 225 223 221 218 214 213 213 215 216 213 211 213 213 205 199 206 215 212 210 226 236 231 219 198 197 287 294 286 268 251 246 249 246 242 248 248 231 217 218
304 299 292 286 282 278 274 272 270 268 266 262 259 254 250 248 246 245 243 241 240 238 237 236 236 236 236 237 238 238 239 238 238 240 239 236 235 233 232 232 233 234 234 234 234 233 232 231 229 227 225 222 219 218 217 215 215 218 216 212 210 209 205 200 201 212 224 220 222 242 252 245 238 261 280 285 294 281 256 248 250 245 239 242 247 238 227 225
303 300 295 289 285 280 275 271 269 267 264 262 259 256 252 248 246 245 243 241 239 237 236 234 234 234 235 235 236 237 238 237 237 238 238 236 235 235 233 232 232 233 234 235 235 235 233 232 229 227 226 222 220 220 220 218 216 218 219 215 208 202 202 197 186 193 219 223 216 234 256 252 247 256 265 280 295 284 267 262 250 237 234 239 243 241 235 228
301 299 295 290 286 281 276 273 269 266 263 260 258 256 254 250 246 244 242 241 240 238 236 234 233 233 233 234 234 235 235 235 235 237 236 235 234 234 233 232 231 231 232 233 234 234 233 231 229 227 226 223 219 218 219 220 217 217 219 216 209 201 197 191 184 192 213 225 223 223 236 241 238 240 254 275 286 285 286 278 253 234 234 237 239 245 246 236
300 298 295 291 286 281 276 273 271 268 264 260 257 255 254 252 248 245 242 240 239 238 237 236 235 234 233 234 234 234 233 233 234 236 236 235 234 233 233 232 231 230 230 231 232 232 231 230 230 229 228 227 224 220 219 219 219 218 216 214 211 202 195 188 186 195 213 226 229 226 229 235 235 235 250 264 272 285 289 282 258 241 239 238 238 244 248 241
300 297 294 291 286 281 275 272 270 269 266 261 258 255 252 251 249 246 242 238 236 235 235 235 235 235 234 234 234 235 234 233 233 233 234 236 235 234 234 233 232 231 230 229 230 231 230 230 230 230 229 228 228 225 222 221 219 219 215 209 208 200 192 187 188 196 208 217 222 226 230 232 234 239 250 257 263 275 276 273 257 243 239 238 235 236 241 234
301 297 293 289 285 280 275 270 267 266 263 260 258 255 253 250 246 243 240 236 234 232 230 231 232 232 234 234 233 234 233 232 232 232 232 234 235 235 234 232 232 232 231 229 229 230 230 230 229 229 229 227 227 227 226 224 221 219 215 209 206 199 190 188 192 196 200 209 216 221 229 231 231 236 240 242 250 259 262 262 253 242 238 236 228 226 229 218
303 298 293 289 286 282 277 271 266 263 260 258 256 252 251 249 244 240 236 232 231 229 227 227 228 228 232 232 231 231 233 233 232 231 232 232 233 233 232 231 230 230 230 229 229 229 230 230 229 227 227 227 227 226 225 226 223 217 213 210 207 201 192 189 195 197 197 206 213 215 222 227 226 227 226 225 230 241 251 258 251 243 239 233 224 221 216 203
307 300 294 291 288 285 281 275 269 263 259 255 251 247 244 243 238 232 231 227 222 223 225 226 226 227 229 231 229 229 230 232 231 229 230 231 229 229 230 229 228 228 228 227 228 229 229 230 232 231 230 228 227 225 224 224 223 217 212 210 207 204 196 192 197 200 200 206 210 212 219 222 219 220 221 220 221 226 229 235 237 237 236 229 223 221 209 202
314 303 295 291 290 290 288 285 277 267 257 248 241 236 233 232 229 225 223 218 214 218 221 223 225 225 226 228 228 228 229 231 231 226 226 230 228 226 227 227 227 228 227 226 226 227 227 228 230 233 234 233 230 227 226 225 224 220 213 209 207 206 201 198 200 201 204 209 209 210 218 221 218 219 220 219 219 214 188 167 215 229 236 234 228 224 212 208
321 308 296 291 290 293 293 293 287 273 257 245 232 218 215 217 218 218 213 211 215 217 216 216 219 221 223 224 227 229 228 228 229 225 221 227 229 227 226 227 227 228 228 227 226 226 227 227 227 227 231 234 233 228 225 224 224 222 216 211 209 208 206 204 205 205 209 210 207 209 218 224 225 227 228 228 225 210 178 153 180 225 235 237 232 227 222 221
325 313 298 290 291 294 293 291 289 279 256 237 220 207 211 215 217 218 213 211 214 214 213 212 212 217 221 221 224 229 229 227 230 229 224 225 229 229 227 227 227 227 227 227 226 226 227 229 228 226 226 229 230 227 225 224 224 224 220 214 212 211 209 209 209 211 215 214 207 209 217 223 225 228 233 235 231 223 204 179 184 199 209 215 221 226 225 226
326 319 306 295 292 293 291 285 283 278 250 222 211 212 218 222 222 224 221 219 220 221 219 211 204 210 219 221 220 223 227 224 223 226 224 221 225 228 228 228 228 228 228 227 225 224 225 228 230 229 227 227 228 227 226 224 223 224 222 218 215 213 213 214 214 215 220 219 211 209 216 221 222 224 230 233 230 231 232 213 201 205 203 198 205 220 226 225
324 320 313 302 293 289 286 279 269 261 232 206 209 219 224 227 228 228 231 233 236 238 234 218 204 205 214 221 216 212 213 209 204 211 216 217 220 222 224 226 226 226 228 229 227 224 224 225 225 227 227 228 229 228 227 226 226 225 223 220 217 215 216 218 219 218 220 221 214 209 215 221 220 220 226 232 230 229 234 227 210 208 208 203 205 215 223 227
323 320 315 307 297 288 283 273 245 227 218 207 211 222 227 231 231 228 230 236 242 243 240 229 213 205 210 215 213 207 204 203 206 210 212 218 222 222 224 226 226 225 225 227 228 226 225 223 222 224 228 231 230 227 226 227 226 224 221 219 216 216 218 219 221 222 222 223 216 208 213 221 221 218 220 226 229 227 230 231 221 212 212 214 217 218 219 223
325 323 320 314 300 286 282 269 230 213 216 217 217 225 230 232 233 229 228 232 236 236 237 235 221 210 209 211 210 208 205 209 220 221 216 221 226 226 227 228 230 229 225 226 227 226 226 224 222 223 228 232 231 226 225 224 221 220 218 214 213 214 217 218 220 223 226 228 224 213 213 221 225 222 218 221 227 228 227 228 226 222 222 225 227 221 216 219
327 325 324 321 309 293 292 276 239 222 220 221 224 228 229 231 235 233 229 227 227 226 229 230 222 215 214 214 212 210 210 216 227 228 224 227 230 230 230 230 232 233 230 227 226 226 225 225 225 223 224 228 228 226 226 224 221 220 218 215 213 214 217 219 219 221 225 231 233 225 218 220 226 227 223 223 228 233 233 231 231 230 228 227 227 223 216 220
342 334 328 327 322 308 299 281 254 237 227 225 227 229 228 230 234 234 227 220 219 216 212 214 221 223 224 223 219 217 220 225 232 235 233 234 236 235 234 234 235 236 236 233 230 227 222 220 224 224 219 219 222 223 225 224 220 220 222 221 217 213 212 217 219 219 221 227 233 233 225 222 227 231 229 227 228 233 235 235 237 237 234 231 232 231 224 224
356 347 338 331 320 303 291 279 263 249 241 236 232 229 226 228 230 228 224 218 215 214 211 214 226 232 234 236 233 230 233 236 240 245 245 243 242 241 239 239 240 241 242 242 239 235 227 221 222 223 217 212 216 218 218 221 220 218 220 219 214 209 207 211 215 217 218 221 225 226 221 220 222 217 214 216 217 222 226 231 235 238 239 240 240 239 233 233
1 359 351 338 326 316 300 289 284 270 256 239 233 224 217 226 227 215 214 218 216 218 219 222 229 232 234 240 242 242 243 245 248 251 250 245 242 241 238 236 237 237 236 239 240 237 232 224 221 222 218 211 213 214 212 215 219 215 211 211 210 209 209 212 213 214 215 217 218 215 199 194 201 191 185 192 199 205 212 220 228 235 239 242 243 243 241 242
6 8 2 351 352 8 -0 348 2 333 268 226 227 221 205 222 231 210 206 215 218 222 225 225 227 229 230 233 238 244 248 251 253 247 239 234 231 234 234 232 234 232 228 228 231 233 232 227 218 216 217 212 211 213 209 210 215 212 206 208 210 208 209 211 211 213 215 213 214 210 186 176 195 196 194 202 205 206 208 211 218 224 230 234 238 243 246 247
10 14 11 6 6 20 35 32 30 41 85 226 243 238 206 214 225 209 202 207 209 220 230 232 234 235 231 230 236 244 250 253 250 240 236 234 232 233 234 235 237 237 233 229 227 228 230 229 220 211 212 212 210 212 209 207 211 209 205 206 209 208 206 207 207 212 216 213 213 209 189 180 192 195 198 211 215 215 214 212 214 216 219 226 230 238 243 238
15 20 21 20 17 24 43 43 45 101 117 93 70 64 110 174 193 175 189 205 204 210 219 226 234 235 232 231 237 245 251 253 248 242 241 239 238 240 238 238 242 244 244 241 236 233 229 229 224 214 210 209 208 211 210 207 209 209 206 206 207 206 204 204 204 206 211 213 213 209 197 190 193 195 202 214 216 217 216 213 216 215 213 217 220 223 226 220
21 27 25 25 25 29 41 46 54 81 90 85 69 54 68 101 95 116 184 222 228 223 216 212 220 231 236 238 240 242 246 252 254 254 253 250 247 247 246 246 247 248 248 245 242 240 234 230 228 220 212 207 207 210 208 206 208 210 209 207 207 206 205 205 204 202 205 208 210 211 202 195 199 204 209 217 218 218 217 213 215 214 207 204 204 204 207 213
24 33 26 20 27 36 47 54 51 46 52 71 62 42 29 19 355 292 237 253 261 257 246 233 232 240 244 242 240 239 239 245 251 255 257 257 255 252 251 251 250 249 249 246 242 242 239 236 233 228 219 209 206 209 209 206 207 210 211 209 209 207 205 205 204 201 202 203 207 210 199 188 196 203 204 212 218 217 214 210 210 212 207 199 195 197 203 213
21 29 21 12 26 47 52 47 39 26 11 16 38 37 17 352 337 321 302 293 286 273 261 250 244 247 248 244 243 243 242 243 248 251 255 257 258 256 256 256 255 254 253 251 248 245 243 242 239 234 228 219 211 210 212 212 210 210 210 210 211 210 207 205 204 202 201 199 200 201 192 186 194 197 195 201 209 207 203 202 204 208 205 198 194 196 203 209
19 19 15 15 20 46 44 27 13 8 355 345 355 2 347 334 325 317 308 304 297 283 271 262 256 255 255 252 248 248 248 247 248 250 252 254 256 257 257 258 258 257 257 255 253 251 249 247 243 239 235 229 221 215 215 216 215 215 213 210 210 211 210 207 204 203 202 197 193 189 186 190 196 193 190 192 194 194 196 198 199 199 199 198 198 200 203 207
25 20 18 21 20 11 22 6 347 345 341 335 335 329 322 321 317 312 306 300 294 287 280 274 268 264 264 262 258 257 257 254 252 254 256 257 257 258 259 259 259 259 259 258 257 255 253 251 248 245 241 237 232 225 221 219 218 219 220 216 211 210 212 210 204 204 203 196 190 184 185 195 200 194 190 190 188 189 194 199 200 200 200 201 204 206 205 207
29 28 25 28 32 25 2 343 335 336 337 334 331 325 321 319 315 310 303 296 294 293 288 283 278 274 272 271 268 266 265 263 262 262 262 261 260 258 258 258 260 261 260 260 259 257 255 253 251 249 247 244 239 234 229 223 220 220 222 222 216 210 212 212 206 204 203 198 191 185 187 199 203 195 191 191 187 188 191 192 195 200 202 200 204 210 209 208
28 29 27 29 34 29 13 357 348 346 345 340 336 332 326 322 317 311 305 301 300 299 293 286 283 280 278 276 273 271 271 269 268 265 262 260 259 256 256 258 260 262 261 260 259 258 256 255 253 250 248 247 244 240 235 229 224 221 221 224 223 216 212 213 212 207 203 200 195 188 190 199 202 194 191 192 190 191 192 185 184 194 199 199 204 211 211 211
28 28 28 29 33 29 24 20 13 8 0 352 350 348 339 334 329 323 319 316 312 307 300 294 290 286 282 278 275 275 275 272 269 264 258 256 255 256 259 262 264 266 265 264 263 262 261 260 257 253 249 248 246 242 238 234 228 224 222 223 226 224 217 213 213 213 208 202 197 194 193 198 201 197 193 193 194 194 195 193 187 191 197 201 207 212 212 211
31 31 31 32 34 34 32 30 26 21 14 7 6 2 355 351 348 342 338 332 323 314 307 301 296 291 286 282 279 277 273 265 259 254 251 251 255 259 264 267 270 271 269 271 273 274 274 271 268 262 255 252 250 246 241 237 230 224 222 221 223 226 224 216 212 214 212 205 200 198 196 196 200 200 197 196 197 197 197 198 198 198 199 203 207 210 212 212